TimeEST,TemperatureF,Dew PointF,Humidity,Sea Level PressureIn,VisibilityMPH,Wind Direction,Wind SpeedMPH,Gust SpeedMPH,PrecipitationIn,Events,Conditions,WindDirDegrees,DateUTC
1:53 AM,42.1,39.9,92,-9999,10.0,Calm,Calm,-,N/A,,Clear,0,2012-11-24 06:53:00
2:53 AM,41.0,39.0,93,-9999,10.0,Calm,Calm,-,N/A,,Scattered Clouds,0,2012-11-24 07:53:00
3:22 AM,39.2,37.4,93,-9999,10.0,Calm,Calm,-,N/A,,Mostly Cloudy,0,2012-11-24 08:22:00
3:53 AM,39.0,37.9,96,-9999,9.0,Calm,Calm,-,N/A,,Mostly Cloudy,0,2012-11-24 08:53:00
4:37 AM,39.2,37.4,93,-9999,1.8,Calm,Calm,-,N/A,,Mostly Cloudy,0,2012-11-24 09:37:00
4:44 AM,39.2,37.4,93,-9999,1.5,Calm,Calm,-,N/A,,Overcast,0,2012-11-24 09:44:00
4:48 AM,39.2,37.4,93,-9999,3.0,Calm,Calm,-,N/A,,Overcast,0,2012-11-24 09:48:00
4:53 AM,39.9,37.9,93,-9999,7.0,Calm,Calm,-,N/A,,Overcast,0,2012-11-24 09:53:00
5:41 AM,39.2,37.4,93,-9999,8.0,Calm,Calm,-,N/A,,Scattered Clouds,0,2012-11-24 10:41:00
5:53 AM,41.0,39.0,93,-9999,8.0,Calm,Calm,-,N/A,,Clear,0,2012-11-24 10:53:00
6:41 AM,39.2,39.2,100,-9999,10.0,Calm,Calm,-,N/A,,Partly Cloudy,0,2012-11-24 11:41:00
6:53 AM,39.9,37.9,93,-9999,9.0,Calm,Calm,-,N/A,,Partly Cloudy,0,2012-11-24 11:53:00
7:53 AM,45.0,43.0,93,-9999,10.0,Calm,Calm,-,N/A,,Clear,0,2012-11-24 12:53:00
8:53 AM,57.0,51.1,81,-9999,10.0,Calm,Calm,-,N/A,,Partly Cloudy,0,2012-11-24 13:53:00
9:53 AM,68.0,55.9,65,-9999,10.0,NNW,9.2,-,N/A,,Clear,330,2012-11-24 14:53:00
10:53 AM,69.1,53.1,57,-9999,10.0,NNW,8.1,-,N/A,,Clear,340,2012-11-24 15:53:00
11:53 AM,71.1,53.1,53,-9999,10.0,Calm,Calm,-,N/A,,Clear,0,2012-11-24 16:53:00
12:53 PM,73.0,53.1,49,-9999,10.0,West,11.5,-,N/A,,Clear,270,2012-11-24 17:53:00
1:53 PM,71.1,52.0,51,-9999,10.0,WNW,11.5,-,N/A,,Clear,290,2012-11-24 18:53:00
2:53 PM,69.1,51.1,53,-9999,10.0,WNW,12.7,-,N/A,,Clear,300,2012-11-24 19:53:00
3:53 PM,66.0,50.0,56,-9999,10.0,West,12.7,-,N/A,,Clear,280,2012-11-24 20:53:00
4:53 PM,63.0,39.0,41,-9999,10.0,WNW,11.5,-,N/A,,Clear,290,2012-11-24 21:53:00
5:53 PM,57.0,43.0,59,-9999,10.0,WNW,4.6,-,N/A,,Clear,300,2012-11-24 22:53:00
6:53 PM,50.0,42.1,74,30.09,10.0,WNW,3.5,-,N/A,,Clear,290,2012-11-24 23:53:00
7:53 PM,48.0,43.0,83,30.10,10.0,Calm,Calm,-,N/A,,Clear,0,2012-11-25 00:53:00
8:53 PM,44.1,41.0,89,30.11,10.0,Calm,Calm,-,N/A,,Clear,0,2012-11-25 01:53:00
9:53 PM,42.1,39.9,92,30.12,10.0,Calm,Calm,-,N/A,,Clear,0,2012-11-25 02:53:00
10:53 PM,41.0,39.9,96,30.12,10.0,Calm,Calm,-,N/A,,Clear,0,2012-11-25 03:53:00
11:36 PM,37.4,37.4,100,30.13,1.8,Calm,Calm,-,N/A,,Clear,0,2012-11-25 04:36:00
11:43 PM,37.4,37.4,100,30.12,1.0,Calm,Calm,-,N/A,,Clear,0,2012-11-25 04:43:00
11:49 PM,39.2,37.4,93,30.12,2.0,Calm,Calm,-,N/A,,Clear,0,2012-11-25 04:49:00
11:53 PM,39.0,37.9,96,30.12,3.0,Calm,Calm,-,N/A,,Clear,0,2012-11-25 04:53:00